Header for Extended Forecast Station List Page

Search by: ID | Name | Date | Parm | Value | Avg | % Avg
Sort by: ID | Name | Date | Parm | Value | Avg | % Avg

Enter search or view all records.

Click on id for station plot
#IDNameDateParmValueAvg% Avg
0LYDM8KOOTENAI-LIBBY DAM01-25-2021INFLOW (KAF)1708192189
1LEOI1KOOTENAI-AT LEONIA01-25-2021DISCHARGE (KAF)30182402126
2BFEI1KOOTENAI-AT BONNERS FERRY01-25-2021STAGE (FT)MMM
3FCFM8NF FLATHEAD-NEAR COLUMBIA FALLS01-25-2021DISCHARGE (KAF)57464389
4WGCM8MF FLATHEAD-NEAR WEST GLACIER01-25-2021DISCHARGE (KAF)56161591
5HHWM8SF FLATHEAD-HUNGRY HORSE DAM01-25-2021INFLOW (KAF)83388694
6CFMM8FLATHEAD-AT COLUMBIA FALLS01-25-2021DISCHARGE (KAF)2026214095
7DLGM8CLARK FORK-AT DEER LODGE01-25-2021DISCHARGE (KAF)7570107
8DRMM8CLARK FORK-NR DRUMMOND01-25-2021DISCHARGE (KAF)158MM
9RCCM8ROCK CREEK-NEAR CLINTON01-25-2021DISCHARGE (KAF)113105108
10BONM8BLACKFOOT-NEAR BONNER01-25-2021DISCHARGE (KAF)36738396
11ABOM8CLARK FORK-ABOVE MISSOULA01-25-2021DISCHARGE (KAF)66273590
12BITM8BITTERROOT-NEAR MISSOULA01-25-2021DISCHARGE (KAF)48552393
13BELM8CLARK FORK-BELOW MISSOULA01-25-2021DISCHARGE (KAF)1148127090
14STRM8ST. REGIS-NEAR ST. REGIS01-25-2021DISCHARGE (KAF)14417881
15SRGM8CLARK FORK-AT ST REGIS01-25-2021DISCHARGE (KAF)1517177885
16KERM8FLATHEAD-SELI’Š KSANKA QLISPE’ DAM01-25-2021INFLOW (KAF)2317274684
17NOXM8CLARK FORK-NOXON RAPIDS DAM01-25-2021INFLOW (KAF)4234544778
18CABI1CLARK FORK-CABINET GORGE DAM01-25-2021INFLOW (KAF)4719570683
19PRTI1PRIEST-NEAR PRIEST RIVER01-25-2021DISCHARGE (KAF)554493112
20ALFW1PEND OREILLE-ALBENI FALLS DAM01-25-2021INFLOW (KAF)5903697085
21HOPI1PEND OREILLE-PEND OREILLE LAKE NR HOPE01-25-2021LAKE ELEVATION (FT)MMM
22COEI1COEUR D ALENE-COEUR D ALENE LAKE01-25-2021INFLOW (KAF)2425248398
23SPOW1SPOKANE-AT SPOKANE01-25-2021DISCHARGE (KAF)2290MM
24LLKW1SPOKANE-AT LONGLAKE01-25-2021INFLOW (KAF)2621294089
25SATI1ST MARIES-NEAR SANTA01-25-2021DISCHARGE (KAF)155140110
26SJMI1ST JOE-AT ST MARIES01-25-2021STAGE (FT)MMM
27CIBW1COLUMBIA-AT INTL BOUNDARY01-25-2021DISCHARGE (KAF)19978MM
28LAUW1KETTLE-AT LAURIER01-25-2021DISCHARGE (KAF)74789184
29GCDW1COLUMBIA-GRAND COULEE DAM01-25-2021INFLOW (KAF)2348622410105
30CHJW1COLUMBIA-CHIEF JOSEPH DAM01-25-2021INFLOW (KAF)237342537094
31TONW1OKANOGAN-NEAR TONASKET01-25-2021DISCHARGE (KAF)62965896
32PATW1METHOW-NEAR PATEROS01-25-2021DISCHARGE (KAF)400344117
33WELW1COLUMBIA-WELLS DAM01-25-2021INFLOW (KAF)247422634794
34CHDW1CHELAN-LAKE CHELAN DAM01-25-2021INFLOW (KAF)39242193
35RRHW1COLUMBIA-ROCKY REACH DAM01-25-2021INFLOW (KAF)251382672494
36ARDW1ENTIAT-NEAR ARDENVOIR01-25-2021DISCHARGE (KAF)7573103
37PESW1WENATCHEE-AT PESHASTIN01-25-2021DISCHARGE (KAF)711705101
38WANW1COLUMBIA-WANAPUM DAM01-25-2021INFLOW (KAF)2584125339102
39PRWW1COLUMBIA-PRIEST RAPIDS DAM01-25-2021INFLOW (KAF)2583925631101
40KEDW1YAKIMA-KEECHELUS LAKE01-25-2021INFLOW (KAF)10784127
41KADW1KACHESS-KACHESS DAM01-25-2021INFLOW (KAF)9881121
42EASW1YAKIMA-AT EASTON01-25-2021DISCHARGE (KAF)9810098
43CLUW1CLE ELUM-CLE ELUM LAKE01-25-2021INFLOW (KAF)266223120
44TNAW1TEANAWAY-BELOW FORKS01-25-2021DISCHARGE (KAF)151119127
45UMTW1YAKIMA-AT UMTANUM01-25-2021DISCHARGE (KAF)554525106
46BUDW1BUMPING-BUMPING LAKE DAM01-25-2021INFLOW (KAF)7564117
47CLFW1NACHES-NEAR CLIFFDEL01-25-2021DISCHARGE (KAF)254240106
48RILW1TIETON-RIMROCK LAKE NEAR RIMROCK01-25-2021INFLOW (KAF)11611799
49NACW1NACHES-NEAR NACHES01-25-2021DISCHARGE (KAF)322289112
50PARW1YAKIMA-NEAR PARKER01-25-2021DISCHARGE (KAF)62262899
51KIOW1YAKIMA-AT KIONA01-25-2021DISCHARGE (KAF)90098192
52IPDI1HENRYS FORK-ISLAND PARK DAM01-25-2021INFLOW (KAF)13815092
53CHEI1FALL RIVER-NEAR CHESTER01-25-2021DISCHARGE (KAF)196195100
54ANTI1HENRYS FORK-AT ST. ANTHONY01-25-2021DISCHARGE (KAF)45149691
55TEAI1TETON-NEAR ST. ANTHONY01-25-2021DISCHARGE (KAF)14516389
56REXI1HENRYS FORK-AT REXBURG01-25-2021DISCHARGE (KAF)49057186
57JLKW4SNAKE-JACKSON LAKE AT DAM01-25-2021INFLOW (KAF)22326185
58JKSW4SNAKE-NEAR JACKSON01-25-2021DISCHARGE (KAF)39553973
59ALPW4SNAKE-NEAR ALPINE01-25-2021DISCHARGE (KAF)54673075
60PLDI1SF SNAKE-PALISADES DAM01-25-2021INFLOW (KAF)935120578
61HEII1SNAKE-NEAR HEISE01-25-2021DISCHARGE (KAF)13161254105
62RIDI1WILLOW CREEK-RIRIE DAM01-25-2021INFLOW (KAF)223759
63SIFI1SNAKE-AB EAGLE ROCK NR IDAHO FALLS01-25-2021DISCHARGE (KAF)1375138799
64SHYI1SNAKE-NEAR SHELLEY01-25-2021DISCHARGE (KAF)1302141692
65SNAI1SNAKE-AT BLACKFOOT01-25-2021DISCHARGE (KAF)1112124090
66BFTI1SNAKE-NEAR BLACKFOOT01-25-2021DISCHARGE (KAF)1083126586
67PIHI1PORTNEUF-AT POCATELLO01-25-2021DISCHARGE (KAF)6110061
68AFRI1SNAKE-AMERICAN FALLS RESERVOIR01-25-2021INFLOW (KAF)1652196884
69MILI1SNAKE-AT MILNER01-25-2021DISCHARGE (KAF)487516
70HOTI1BRUNEAU-NEAR HOT SPRINGS01-25-2021DISCHARGE (KAF)4912041
71SWAI1SNAKE-BELOW SWAN FALLS01-25-2021DISCHARGE (KAF)1766274064
72HWRI1BIG LOST-AT HOWELL RANCH NEAR CHILLY01-25-2021DISCHARGE (KAF)274658
73MACI1BIG LOST-MACKAY RESERVOIR NEAR MACKAY01-25-2021INFLOW (KAF)313881
74HALI1BIG WOOD-AT HAILEY01-25-2021DISCHARGE (KAF)539855
75MAGI1BIG WOOD-MAGIC DAM01-25-2021INFLOW (KAF)6715344
76LWRI1LITTLE WOOD-LITTLE WOOD DAM01-25-2021INFLOW (KAF)364973
77OWYO3OWYHEE-OWYHEE DAM01-25-2021INFLOW (KAF)21034561
78ARAI1SF BOISE-ANDERSON RANCH DAM01-25-2021INFLOW (KAF)26030685
79LUCI1BOISE-LUCKY PEAK DAM01-25-2021INFLOW (KAF)776MM
80BIGI1BOISE-AT GLENWOOD BRIDGE01-25-2021DISCHARGE (KAF)317249127
81PARI1BOISE-NEAR PARMA01-25-2021DISCHARGE (KAF)397360110
82WRMO3MALHEUR-WARM SPRINGS DAM01-25-2021INFLOW (KAF)657686
83BERO3MALHEUR-AGENCY VALLEY DAM01-25-2021INFLOW (KAF)335066
84BULO3BULLY CREEK-BULLY CREEK DAM01-25-2021INFLOW (KAF)159160
85CSDI1NF PAYETTE-CASCADE DAM01-25-2021INFLOW (KAF)282279101
86DEDI1DEADWOOD-NEAR LOWMAN01-25-2021INFLOW (KAF)526087
87EMMI1PAYETTE-NEAR EMMETT01-25-2021DISCHARGE (KAF)67883481
88WSRI1WEISER-NEAR WEISER01-25-2021DISCHARGE (KAF)400385104
89WEII1SNAKE-AT WEISER01-25-2021DISCHARGE (KAF)3517503270
90BRNI1SNAKE-BROWNLEE DAM01-25-2021INFLOW (KAF)3979540774
91WHBI1SALMON-AT WHITEBIRD01-25-2021DISCHARGE (KAF)1845245475
92TRYO3GRANDE RONDE-TROY01-25-2021DISCHARGE (KAF)11221011111
93ANAW1SNAKE-NEAR ANATONE01-25-2021DISCHARGE (KAF)6774986969
94ORFI1CLEARWATER-AT OROFINO01-25-2021DISCHARGE (KAF)2630279194
95DWRI1NF CLEARWATER-DWORSHAK DAM01-25-2021INFLOW (KAF)20971945108
96SPDI1CLEARWATER-AT SPALDING01-25-2021DISCHARGE (KAF)47084717100
97LGDW1SNAKE-LOWER GRANITE DAM01-25-2021INFLOW (KAF)114821457879
98LGSW1SNAKE-LITTLE GOOSE DAM01-25-2021INFLOW (KAF)114821463278
99LMNW1SNAKE-LOWER MONUMENTAL DAM01-25-2021INFLOW (KAF)116861489378
100IHDW1SNAKE-ICE HARBOR DAM01-25-2021INFLOW (KAF)116861473379
101TCHW1WALLA WALLA-NEAR TOUCHET01-25-2021DISCHARGE (KAF)220219100
102MCDW1COLUMBIA-MCNARY DAM01-25-2021INFLOW (KAF)385534262990
103GIBO3UMATILLA-NEAR GIBBON01-25-2021DISCHARGE (KAF)10283123
104PDTO3UMATILLA-AT PENDLETON01-25-2021DISCHARGE (KAF)227198115
105MYKO3MCKAY CREEK-NEAR PILOT ROCK01-25-2021DISCHARGE (KAF)314174
106UMAO3UMATILLA-NEAR UMATILLA01-25-2021DISCHARGE (KAF)210176119
107MONO3NF JOHN DAY-AT MONUMENT01-25-2021DISCHARGE (KAF)48555987
108SERO3JOHN DAY-AT SERVICE CK01-25-2021DISCHARGE (KAF)66082180
109JDAO3COLUMBIA-JOHN DAY DAM01-25-2021INFLOW (KAF)406704508190
110MODO3DESCHUTES-AT MOODY NR BIGGS01-25-2021DISCHARGE (KAF)1468160491
111TDAO3COLUMBIA-THE DALLES DAM01-25-2021INFLOW (KAF)411394645489
112PITW1KLICKITAT-NEAR PITT01-25-2021DISCHARGE (KAF)47650994
113HODO3HOOD-NEAR TUCKER BRIDGE01-25-2021DISCHARGE (KAF)315289109
114UNDW1WHITE SALMON-NEAR UNDERWOOD01-25-2021DISCHARGE (KAF)358357100
115BONO3COLUMBIA-BONNEVILLE DAM01-25-2021INFLOW (KAF)422574919486